Location: Brede
(50.9167°N, 0.6000°E)
Time: 03:31:22
(UTC+00:00)

CENTAUR R/B - Pass Details

Date: 08 August 2020
Orbit: 756 x 1432 km, 63.4° (Epoch: 19 September)

Event Time Altitude Azimuth Distance (km) Brightness Sun altitude
Rises 01:28:19 0° 273° (W) 3,661 5.3 -20.5°
Reaches altitude 10° 01:31:00 10° 283° (WNW) 2,813 4.8 -20.3°
Maximum altitude 01:37:04 34° 347° (NNW) 1,789 4.3 -20.0°
Drops below altitude 10° 01:44:05 10° 51° (NE) 3,267 6.2 -19.5°
Sets 01:47:27 0° 60° (ENE) 4,330 6.8 -19.3°
